Tracking 20621 objects as of 30-Mar-2020
HD Live streaming from Space Station
objects crossing your sky now

DMSP 5D-2 F11 DEB

Track DMSP 5D-2 F11 DEB now!
10-day predictions


NORAD ID: 29068
Int'l Code: 1991-082BP
Perigee: 673.6 km
Apogee: 749.8 km
Inclination: 98.9 °
Period: 98.9 minutes
Semi major axis: 7082 km
RCS: 0.0124 m2 (small)
Launch date: November 28, 1991
Source: United States (US)
Launch site: AIR FORCE WESTERN TEST RANGE (AFWTR)

Note: This is SATELLITE DEBRIS
aabbcc
Your satellite tracking list
Your tracking list is empty




NASA's NSSDC Master Catalog

Two Line Element Set (TLE):
1 29068U 91082BP  20089.64270347  .00004284  00000-0  95610-3 0  9999
2 29068  98.8805 235.7835 0053781 123.2006 237.4363 14.56492197742768
Source of the keplerian elements: AFSPC